{"data":{"norad_id":68636,"epoch":"2026-05-24T17:39:21.303072Z","epoch_age_seconds":94504,"freshness":"FRESH","line1":"1 68636U 26075A   26144.73566323  .00000045  00000+0  39978-4 0  9999","line2":"2 68636  88.9878 323.4276 0011681  66.5483 293.6903 13.65209094  6620","mean_motion":13.65209094,"eccentricity":0.0011681,"inclination_deg":88.9878,"raan_deg":323.4276,"arg_perigee_deg":66.5483,"mean_anomaly_deg":293.6903,"bstar":3.9978e-5,"rev_number":662,"period_min":105.47834806615,"perigee_km":1008.1831968142,"apogee_km":1025.4592982721,"semimajor_km":7394.9582475431,"source":"CELESTRAK","updated_at":"2026-05-25T13:38:07.989474Z"}}